This is the latest recevied weather packets stored in our database for station/object KB1FFS. If no packets are shown the sender has not sent any weather packets the latest 10 day(s).
| Time | Temp. | Humidity | Pressure | Rain* | Wind** | Luminosity | Snow |
|---|---|---|---|---|---|---|---|
| 1777689166 | 16.67° C | 68% | 1019.4 hPa | 0 mm | - | 0 W/m² | - |
| 1777688863 | 16.67° C | 67% | 1019.4 hPa | 0 mm | - | 0 W/m² | - |
| 1777688559 | 16.67° C | 67% | 1019.2 hPa | 0 mm | - | 0 W/m² | - |
| 1777688256 | 16.67° C | 68% | 1019.4 hPa | 0 mm | - | 0 W/m² | - |
| 1777687954 | 16.67° C | 67% | 1019.2 hPa | 0 mm | - | 0 W/m² | - |
| 1777687651 | 16.67° C | 67% | 1019.3 hPa | 0 mm | - | 0 W/m² | - |
| 1777687348 | 16.67° C | 66% | 1019.1 hPa | 0 mm | - | 0 W/m² | - |
| 1777687046 | 16.67° C | 66% | 1019.1 hPa | 0 mm | - | 0 W/m² | - |
| 1777686742 | 16.67° C | 65% | 1018.9 hPa | 0 mm | - | 0 W/m² | - |
| 1777686440 | 16.67° C | 65% | 1018.9 hPa | 0 mm | - | 0 W/m² | - |
| 1777686136 | 16.67° C | 65% | 1018.7 hPa | 0 mm | - | 0 W/m² | - |
| 1777685833 | 16.67° C | 65% | 1018.7 hPa | 0 mm | - | 0 W/m² | - |
| 1777685528 | 16.67° C | 65% | 1018.6 hPa | 0 mm | - | 0 W/m² | - |
| 1777685225 | 17.22° C | 64% | 1018.5 hPa | 0 mm | - | 0 W/m² | - |
| 1777684923 | 17.22° C | 63% | 1018.3 hPa | 0 mm | - | 0 W/m² | - |
| 1777684620 | 17.22° C | 63% | 1018.1 hPa | 0 mm | - | 1 W/m² | - |
| 1777684315 | 17.22° C | 65% | 1018.2 hPa | 0 mm | - | 2 W/m² | - |
| 1777684014 | 17.78° C | 64% | 1018.1 hPa | 0 mm | - | 3 W/m² | - |
| 1777683709 | 17.78° C | 65% | 1018.1 hPa | 0 mm | - | 6 W/m² | - |
| 1777683407 | 17.78° C | 65% | 1017.8 hPa | 0 mm | - | 8 W/m² | - |
| 1777683105 | 17.78° C | 64% | 1017.7 hPa | 0 mm | - | 12 W/m² | - |
| 1777682800 | 17.78° C | 63% | 1017.4 hPa | 0 mm | - | 14 W/m² | - |
| 1777682497 | 17.78° C | 62% | 1017.7 hPa | 0 mm | - | 13 W/m² | - |
| 1777682196 | 18.33° C | 62% | 1017.6 hPa | 0 mm | - | 14 W/m² | - |
| 1777681892 | 18.33° C | 61% | 1017.6 hPa | 0 mm | - | 16 W/m² | - |
* Rain latest hour (hover to see other rain measurements)
** Current wind speed in m/s (hover to see current wind gust speed)